Station: Tasman Island  

  Atmospheric Gas Attenuation - ITU Rec 676-11   ----------------- dB/100km -----------------
Date Time Temp RH % AH g/m3 Dew Point Wind Direction Speed kph Gust kph Barometer mB Rainfall Since 9am 24GHz 47GHz 76GHz 122GHz 134GHz 241GHz
01/09 20:50 13.9 67 8.03 7.9 28 44 1001.4 0 18.4 24.5 37.0 97.1 89.9 309.0
01/09 20:40 14.1 64 7.77 7.4 22 46 1001.2 0 17.8 24.1 35.9 94.1 86.4 296.6
01/09 20:30 14.2 63 7.69 7.3 28 43 1000.9 0 17.6 23.9 35.5 93.2 85.2 292.6
01/09 20:20 14.1 64 7.77 7.4 24 43 1000.9 0 17.8 24.0 35.9 94.1 86.4 296.5
01/09 20:10 13.9 64 7.67 7.2 26 46 1000.9 0 17.6 23.9 35.6 93.3 85.3 292.8
01/09 20:00 13.8 64 7.63 7.1 26 39 1000.9 0 17.5 23.9 35.5 93.0 84.9 291.4
01/09 19:50 14 63 7.6 7.1 28 46 1001 0 17.5 23.8 35.3 92.5 84.3 289.4
01/09 19:40 14.1 63 7.65 7.2 22 41 1001.1 0 17.6 23.9 35.4 92.9 84.9 291.2
01/09 19:30 14.1 62 7.52 6.9 20 32 1001.1 0 17.3 23.7 34.9 91.6 83.2 285.5
01/09 19:20 14.1 62 7.52 6.9 20 46 1000.9 0 17.3 23.7 34.9 91.6 83.2 285.5
01/09 19:10 14.2 61 7.45 6.8 24 50 1000.8 0 17.1 23.5 34.6 90.7 82.2 282.0
01/09 19:00 14.3 60 7.37 6.6 26 44 1000.9 0 17.0 23.4 34.3 89.8 81.1 278.2
01/09 18:50 14.4 60 7.42 6.7 26 41 1001 0 17.1 23.4 34.4 90.2 81.6 280.0
01/09 18:40 14.4 58 7.17 6.3 19 41 1001 0 16.5 23.0 33.5 87.7 78.6 269.2
01/09 18:30 14.7 57 7.18 6.3 28 44 1001.2 0 16.5 23.0 33.4 87.5 78.4 268.7
01/09 18:20 14.8 57 7.22 6.4 24 43 1001.3 0 16.6 23.0 33.5 87.8 78.8 270.1
01/09 18:10 14.8 56 7.09 6.1 20 37 1001.6 0 16.3 22.8 33.0 86.5 77.2 264.6
01/09 18:00 14.9 55 7.01 6 19 33 1001.6 0 16.2 22.7 32.7 85.6 76.2 260.8
01/09 17:50 15 55 7.05 6 20 32 1001.7 0 16.2 22.7 32.8 85.9 76.5 262.2
01/09 17:40 15.1 54 6.97 5.9 22 35 1001.8 0 16.1 22.6 32.5 85.1 75.5 258.5
01/09 17:30 15.2 54 7.01 6 24 44 1001.6 0 16.1 22.6 32.6 85.3 75.9 259.9
01/09 17:20 15.3 53 6.92 5.8 30 48 1001.5 0 16.0 22.5 32.2 84.3 74.7 255.7
01/09 17:10 15.4 53 6.96 5.9 28 50 1001.5 0 16.0 22.5 32.3 84.6 75.1 257.1
01/09 17:00 15.6 52 6.92 5.8 33 52 1001.4 0 15.9 22.4 32.1 84.0 74.4 254.7
01/09 16:50 15.6 52 6.92 5.8 33 52 1001.4 0 15.9 22.4 32.1 84.0 74.4 254.7
01/09 16:40 15.7 51 6.82 5.6 35 56 1001.8 0 15.7 22.2 31.7 83.0 73.1 250.3
01/09 16:30 15.8 50 6.73 5.4 28 54 1001.9 0 15.5 22.1 31.3 82.0 72.0 246.3
01/09 16:20 15.6 51 6.78 5.5 24 39 1002 0 15.6 22.2 31.6 82.7 72.8 249.0
01/09 16:10 15.3 54 7.05 6.1 19 35 1002.1 0 16.2 22.7 32.7 85.7 76.3 261.3
01/09 16:00 14.7 59 7.43 6.8 17 28 1002.1 0 17.1 23.4 34.4 90.1 81.5 279.7
01/09 15:50 14.5 61 7.59 7.1 20 33 1002.3 0 17.4 23.7 35.1 91.9 83.8 287.4
01/09 15:40 14.5 60 7.46 6.8 19 39 1002.3 0 17.1 23.5 34.6 90.6 82.1 281.7
01/09 15:30 14.9 55 7.01 6 22 39 1002.2 0 16.2 22.7 32.7 85.7 76.2 261.0
01/09 15:20 14.3 59 7.25 6.4 22 37 1002.3 0 16.7 23.2 33.9 88.7 79.7 273.3
01/09 15:10 14.1 60 7.28 6.5 22 41 1002.5 0 16.8 23.3 34.1 89.3 80.3 275.3
01/09 15:00 13.9 64 7.67 7.2 22 44 1002.5 0 17.6 24.0 35.6 93.5 85.4 293.2
01/09 14:50 13.8 62 7.39 6.7 26 44 1002.9 0 17.0 23.6 34.6 90.8 82.0 281.3
01/09 14:40 14.4 61 7.54 7 24 41 1003.2 0 17.3 23.7 34.9 91.6 83.3 285.8
01/09 14:30 13.6 65 7.65 7.2 24 41 1003.6 0 17.6 24.1 35.7 93.7 85.6 293.7
01/09 14:20 13.2 67 7.69 7.2 30 44 1004 0 17.7 24.3 36.1 94.7 86.6 297.1
01/09 14:10 13.2 69 7.92 7.6 32 46 1004.2 0 18.2 24.6 37.0 97.1 89.5 307.5
01/09 14:00 13.1 70 7.99 7.8 32 44 1004.5 0 18.3 24.8 37.3 98.0 90.6 311.1
01/09 13:50 13.1 70 7.99 7.8 33 44 1004.8 0 18.3 24.8 37.3 98.0 90.6 311.2
01/09 13:40 12.5 74 8.14 8 33 46 1005 0 18.7 25.2 38.2 100.4 93.3 320.5
01/09 13:30 12.3 75 8.14 8 35 48 1005.1 0 18.7 25.3 38.3 100.6 93.5 321.3
01/09 13:20 12.2 74 7.99 7.7 35 48 1005.4 0 18.4 25.1 37.8 99.2 91.7 314.9
01/09 13:10 12.1 72 7.72 7.2 30 44 1005.5 0 17.8 24.7 36.8 96.5 88.3 303.0
01/09 13:00 12.2 70 7.55 6.9 30 46 1005.8 0 17.4 24.4 36.1 94.6 86.0 295.0
01/09 12:50 11.7 73 7.64 7 30 44 1006.1 0 17.6 24.7 36.7 96.2 87.7 301.0
01/09 12:40 11.5 72 7.44 6.6 30 43 1006.7 0 17.2 24.4 36.0 94.4 85.4 292.8
01/09 12:30 11.4 69 7.08 5.9 30 43 1007.2 0 16.5 23.9 34.6 90.8 80.9 277.0
01/09 12:20 11.4 70 7.19 6.1 30 43 1007.5 0 16.7 24.1 35.1 91.9 82.3 282.0
01/09 12:10 11.9 64 6.78 5.3 28 43 1007.8 0 15.8 23.3 33.3 87.2 76.6 262.1
01/09 12:00 11.4 68 6.98 5.7 28 44 1007.9 0 16.2 23.8 34.3 89.8 79.7 272.7
01/09 11:50 11.7 61 6.38 4.4 26 41 1008 0 14.9 22.8 31.9 83.3 71.8 245.2
01/09 11:40 12 60 6.4 4.5 24 41 1008.2 0 15.0 22.7 31.8 83.2 71.8 245.2
01/09 11:30 12.2 56 6.04 3.7 26 39 1008.4 0 14.2 22.2 30.4 79.5 67.2 229.1
01/09 11:20 12.3 54 5.86 3.3 22 35 1008.8 0 13.8 21.9 29.7 77.6 65.0 221.2
01/09 11:10 12.1 54 5.79 3.1 24 43 1009.4 0 13.7 21.8 29.6 77.2 64.3 218.9
01/09 11:00 12 54 5.76 3 22 37 1009.5 0 13.6 21.8 29.5 77.0 64.1 217.9
01/09 10:50 12.3 49 5.32 1.9 20 33 1009.8 0 12.7 21.1 27.8 72.5 58.6 198.7
01/09 10:40 12.5 46 5.06 1.2 24 41 1009.9 0 12.1 20.7 26.8 69.9 55.4 187.6
01/09 10:30 12.4 46 5.03 1.1 24 39 1010 0 12.0 20.7 26.8 69.7 55.1 186.6
01/09 10:20 12.3 46 5 1 26 44 1010.1 0 12.0 20.7 26.7 69.5 54.8 185.6
01/09 10:10 12.3 46 5 1 24 39 1010.2 0 12.0 20.7 26.7 69.5 54.9 185.6
01/09 10:00 12.5 45 4.95 0.9 26 43 1010.4 0 11.9 20.6 26.5 68.9 54.1 183.1
01/09 09:50 12.4 45 4.92 0.8 28 46 1010.7 0 11.8 20.6 26.4 68.7 53.9 182.2
01/09 09:40 12.3 44 4.78 0.4 26 43 1010.8 0 11.5 20.4 26.0 67.5 52.3 176.7
01/09 09:30 12 50 5.33 1.9 22 33 1011 0 12.7 21.3 28.0 73.0 59.0 200.1
01/09 09:20 12.2 46 4.96 0.9 26 46 1011 0 11.9 20.7 26.6 69.3 54.5 184.3
01/09 09:10 11.6 52 5.41 2.1 22 33 1011.3 0 12.9 21.5 28.5 74.1 60.3 204.5
01/09 09:00 11.4 56 5.75 2.9 22 39 1011.5 0 13.6 22.0 29.8 77.7 64.5 219.5
01/09 08:50 11.3 57 5.82 3.1 22 44 1011.6 0 13.8 22.2 30.1 78.5 65.5 222.8
01/09 08:40 11.4 53 5.44 2.2 22 37 1011.8 0 13.0 21.6 28.6 74.7 60.8 206.4
01/09 08:30 12 44 4.69 0.1 24 37 1012 0 11.3 20.4 25.8 67.0 51.5 173.9
01/09 08:20 11.5 51 5.27 1.7 22 33 1012.1 0 12.6 21.3 28.0 72.9 58.7 199.0
01/09 08:10 11.2 56 5.68 2.8 22 37 1012.3 0 13.5 22.0 29.6 77.2 63.9 217.2
01/09 08:00 11 59 5.91 3.3 22 37 1012.4 0 14.0 22.4 30.6 79.7 66.9 227.7
01/09 07:50 10.8 63 6.23 4 24 39 1012.4 0 14.7 22.9 31.8 83.2 71.1 242.3
01/09 07:40 11.1 59 5.94 3.4 22 43 1012.6 0 14.0 22.4 30.6 79.9 67.2 228.8
01/09 07:30 11.5 54 5.58 2.5 26 39 1012.7 0 13.2 21.8 29.2 76.0 62.5 212.2
01/09 07:20 11.5 54 5.58 2.5 24 37 1012.8 0 13.2 21.8 29.2 76.0 62.5 212.2
01/09 07:10 11.6 52 5.41 2.1 20 35 1012.8 0 12.9 21.5 28.5 74.3 60.3 204.8
01/09 07:00 11.3 57 5.82 3.1 22 41 1012.9 0 13.8 22.2 30.1 78.6 65.6 223.1
01/09 06:50 11.7 54 5.65 2.7 22 35 1012.9 0 13.4 21.9 29.4 76.5 63.2 214.7
01/09 06:40 11.5 58 5.99 3.5 20 33 1012.9 0 14.1 22.4 30.7 80.1 67.5 229.8
01/09 06:30 11.9 56 5.93 3.4 22 37 1013.1 0 14.0 22.2 30.3 79.1 66.4 226.2
01/09 06:20 12 54 5.76 3 22 37 1013.3 0 13.6 22.0 29.7 77.3 64.3 218.7
01/09 06:10 11.9 57 6.04 3.7 24 37 1013.3 0 14.2 22.4 30.7 80.2 67.8 230.9
01/09 06:00 12.2 55 5.94 3.4 24 39 1013.4 0 14.0 22.2 30.3 78.9 66.3 225.8
01/09 05:50 12 57 6.08 3.8 24 39 1013.3 0 14.3 22.4 30.8 80.5 68.2 232.4
01/09 05:40 12 57 6.08 3.8 24 39 1013.6 0 14.3 22.5 30.9 80.5 68.2 232.4
01/09 05:30 12.1 58 6.22 4.1 24 41 1013.8 0 14.6 22.6 31.3 81.8 69.9 238.2
01/09 05:20 12.4 57 6.23 4.1 26 41 1013.9 0 14.6 22.6 31.3 81.6 69.7 237.8
01/09 05:10 12.4 57 6.23 4.1 30 44 1014.1 0 14.6 22.6 31.3 81.7 69.7 237.8
01/09 05:00 12.5 57 6.27 4.2 26 41 1014.3 0 14.7 22.6 31.4 82.0 70.1 239.3
01/09 04:50 12.8 56 6.27 4.3 22 35 1014.5 0 14.7 22.6 31.3 81.7 69.9 238.4
01/09 04:40 12.5 58 6.38 4.5 20 32 1014.7 0 14.9 22.8 31.8 83.1 71.5 244.1
01/09 04:30 12.5 58 6.38 4.5 22 32 1014.8 0 14.9 22.8 31.8 83.1 71.5 244.1
01/09 04:20 12.6 57 6.31 4.3 20 33 1015.1 0 14.8 22.7 31.5 82.3 70.6 240.9

Last Refresh: 01-Sep-2026 20:30:00

Bureau of Meteorology